User: anonymous   Login
Location: Dover
(39.1580°N, 75.5250°W)
Time: 21:23:23
(UTC-04:00)
Language:

Cosmos 1437 Rocket - Orbit

View from above orbital plane
View from above orbital plane
View from above satellite
View from above satellite

Ground track
Ground track

The orbit data is extracted from the following two-line orbital elements,

1 13771U 83003B   15214.69842355  .00001442  00000-0  90033-4 0  9998
2 13771 081.1580 071.6935 0028925 116.1766 244.2438 15.08533584770541
Epoch (UTC): 02 August 2015 16:45:43
Eccentricity: 0.0028925
inclination: 81.1580°
perigee height: 520 km
apogee height: 560 km
right ascension of ascending node: 71.6935°
argument of perigee: 116.1766°
revolutions per day: 15.08533584
mean anomaly at epoch: 244.2438°
orbit number at epoch: 77054

The dashed part of the orbit path shows where the satellite is in the earth's shadow,  

DLR